sat.trackr.live / text

‹ back to catalog

2023-003E

NORAD 55137 · 2023-003E

PAYLOAD ACTIVE UNKNOWN

§ Identity

Operator
Country
PRC
Launch date
2023-01-09
Launch site
JSC
Launch vehicle
Mass (kg)
RCS (m²)

External: N2YO · Heavens-Above · Gunter

§ Orbital elements

Epoch: 2026-09-21T23:01:51.383136Z

Period
92.36 min
Inclination
97.1351°
Eccentricity
0.0004729
Mean motion
15.59149490 rev/d
Perigee alt
386.9 km
Apogee alt
393.3 km
Semi-major
6,768.3 km
B*
2.5337e-4
RAAN
340.5200°
Arg perigee
111.6178°
Mean anomaly
248.5583°
Rev number
20,732

§ Raw data

2023-003E1 55137U 23003E   26264.95962249  .00019738  00000+0  25337-3 0  99952 55137  97.1351 340.5200 0004729 111.6178 248.5583 15.59149490207326

JSON: /api/v1/satellites/55137 · /tle

For live sub-satellite position, see the globe view (requires WebGL).

§ Visibility from observer

Set your observer location to see the next 7 days of passes ≥ 10°. The values pass through the URL so the page stays shareable.

No JS? Fill the form by hand. The geolocation button needs JavaScript.